SCP
1 1 1 1 1 1 0 0 0 0 0 0 0 0 0 0 0 0 0 0 0 0 0 0 0 0 0 0 0 0 0 0 0 0 0 0 0 0 0 0 0 0 0
2 1 1 1 1 1 1 1 0 0 0 0 0 0 0 0 0 0 0 0 0 0 0 0 0 0 0 0 0 0 0 0 0 0 0 0 0 0 0 0 0 0 0
2 1 1 1 1 1 1 1 1 1 0 0 0 0 0 0 0 0 0 0 0 0 0 0 0 0 0 0 0 0 0 0 0 0 0 0 0 0 0 0 0 0 0
2 1 1 0 0 1 1 1 1 1 1 1 1 1 1 0 0 0 0 0 0 0 0 0 0 0 0 0 0 0 0 0 0 0 0 0 0 0 0 0 0 0 0
2 1 1 0 0 0 0 1 1 1 1 1 1 1 1 1 0 0 0 0 0 0 0 0 0 0 0 0 0 0 0 0 0 0 0 0 0 0 0 0 0 0 0
2 1 1 0 0 0 0 0 1 1 1 1 1 1 1 1 0 0 0 0 0 0 0 0 0 0 0 0 0 0 0 0 0 0 0 0 0 0 0 0 0 0 0
1 1 1 1 0 0 0 0 0 0 1 1 1 1 1 1 0 0 0 0 0 0 0 0 0 0 0 0 0 0 0 0 0 0 0 0 0 0 0 0 0 0 0
1 1 1 1 0 0 0 0 0 0 0 0 0 1 1 0 0 0 0 0 0 0 0 0 0 0 0 0 0 0 0 0 0 0 0 0 0 0 0 0 0 0 0
1 1 1 1 1 0 0 0 0 0 0 0 0 0 0 0 0 0 0 0 0 0 0 0 0 0 0 0 0 0 0 0 0 0 0 0 0 0 0 0 0 0 0
0 1 1 1 1 0 0 0 0 0 0 0 0 0 0 0 0 0 0 0 0 0 0 0 0 0 0 0 0 0 0 0 0 0 0 0 0 0 0 0 0 0 0
1 1 1 1 1 0 0 0 0 0 0 0 0 0 0 0 0 0 0 0 0 0 0 0 0 0 0 0 0 0 0 0 0 0 0 0 0 0 0 0 0 0 0
1 2 2 1 1 0 0 0 0 0 0 0 0 0 0 0 0 0 0 0 0 0 0 0 0 0 0 0 0 0 0 0 0 0 0 0 0 0 0 0 0 0 0
2 2 2 1 0 0 0 0 0 0 0 0 0 0 0 0 0 0 0 0 0 0 0 0 0 0 0 0 0 0 0 0 0 0 0 0 0 0 0 0 0 0 0
3 2 1 1 0 0 0 0 0 0 0 0 0 0 0 0 0 0 0 0 0 0 0 0 0 0 0 0 0 0 0 0 0 0 0 0 0 0 0 0 0 0 0
2 2 1 0 0 0 0 0 0 0 0 0 0 0 0 0 0 0 0 0 0 0 0 0 0 0 0 0 0 0 0 0 0 0 0 0 0 0 0 0 0 0 0
1 1 0 0 0 0 0 0 0 0 0 0 0 0 0 0 0 0 0 0 0 0 0 0 0 0 0 0 0 0 0 0 0 0 0 0 0 0 0 0 0 0 0
0 0 0 0 0 0 0 0 0 0 0 0 0 0 0 0 0 0 0 0 0 0 0 0 0 0 0 0 0 0 0 0 0 0 0 0 0 0 0 0 0 0 0
0 0 0 0 0 0 0 0 0 0 0 0 0 0 0 0 0 0 0 0 0 0 0 0 0 0 0 0 0 0 0 0 0 0 0 0 0 0 0 0 0 0 0
0 0 0 0 0 0 0 0 0 0 0 0 0 0 0 0 0 0 0 0 0 0 0 0 0 0 0 0 0 0 0 0 0 0 0 0 0 0 0 0 0 0 0
0 0 0 0 0 0 0 0 0 0 0 0 0 0 0 0 0 0 0 0 0 0 0 0 0 0 0 0 0 0 0 0 0 0 0 0 0 0 0 0 0 0 0
0 0 0 0 0 0 0 0 0 0 0 0 0 0 0 0 0 0 0 0 0 0 0 0 0 0 0 0 0 0 0 0 0 0 0 0 0 0 0 0 0 0 0
0 0 0 0 0 0 0 0 0 0 0 0 0 0 0 0 0 0 0 0 0 0 0 0 0 0 0 0 0 0 0 0 0 0 0 0 0 0 0 0 0 0 0
0 0 0 0 0 0 0 0 0 0 0 0 0 0 0 0 0 0 0 0 0 0 0 0 0 0 0 0 0 0 0 0 0 0 0 0 0 0 0 0 0 0 0
0 0 0 0 0 0 0 0 0 0 0 0 0 0 0 0 0 0 0 0 0 0 0 0 0 0 0 0 0 0 0 0 0 0 0 0 0 0 0 0 0 0 0
0 0 0 0 0 0 0 0 0 0 0 0 0 0 0 0 0 0 0 0 0 0 0 0 0 0 0 0 0 0 0 0 0 0 0 0 0 0 0 0 0 0 0
0 0 0 0 0 0 0 0 0 0 0 0 0 0 0 0 0 0 0 0 0 0 0 0 0 0 0 0 0 0 0 0 0 0 0 0 0 0 0 0 0 0 0
Wind_Speed
4 4 4 4 4 4 4 4 4 4 4 4 4 4 4 3 2 2 2 2 1 1 1 1 2 1 1 2 2 2 2 3 6 7 5 6 7 8 9 7 7 7 8
3 4 4 4 4 4 4 4 4 4 4 4 4 4 3 3 3 3 3 2 2 2 2 1 2 1 2 2 2 3 3 4 5 8 7 6 7 7 8 8 8 7 7
3 4 4 4 4 4 3 3 4 4 4 3 4 4 3 3 3 3 3 2 2 2 2 2 3 2 3 3 3 3 3 4 4 5 7 6 6 6 7 8 8 6 7
3 4 4 3 3 3 3 3 3 4 4 3 3 3 3 3 3 3 2 2 2 2 2 2 3 3 4 4 3 4 4 4 4 5 6 6 6 6 5 7 8 7 7
3 3 3 3 3 3 3 3 3 3 3 2 2 2 2 2 3 3 3 2 2 2 2 3 3 4 5 4 4 4 4 3 4 5 5 6 6 6 6 6 8 9 7
3 3 3 3 4 3 3 3 3 3 2 2 2 2 2 2 2 3 2 2 2 2 2 3 3 3 5 7 8 7 6 4 5 4 5 6 7 7 6 6 7 8 7
3 3 3 4 4 3 3 4 3 3 2 2 1 1 1 2 2 2 2 1 2 2 2 2 3 4 5 4 6 7 6 8 7 4 5 6 7 7 7 7 7 7 8
3 3 3 4 4 3 4 3 3 2 2 1 1 0 0 1 1 2 2 1 2 2 2 3 3 3 4 5 4 4 4 5 6 4 4 6 6 6 5 6 7 8 7
3 3 2 3 4 3 3 3 2 2 2 1 1 1 0 1 2 2 1 1 1 2 2 2 3 3 7 7 4 4 5 5 6 8 8 8 10 10 7 4 5 6 7
2 2 2 3 4 3 3 2 2 2 2 1 2 1 0 1 2 2 1 0 1 1 2 2 4 6 7 6 3 3 5 5 5 6 6 7 6 6 8 4 4 5 5
2 3 3 3 3 3 3 3 3 3 2 2 2 2 2 2 2 3 3 1 1 1 2 2 3 7 7 7 5 3 6 6 4 4 4 5 4 4 4 4 3 3 4
2 3 3 3 3 3 4 3 3 3 3 2 2 2 2 2 3 3 3 3 3 1 2 2 3 6 7 7 5 7 8 6 3 3 4 4 5 5 5 5 5 5 5
3 4 3 3 3 3 3 3 3 2 2 1 1 1 1 2 2 4 4 4 4 2 2 4 6 6 5 4 6 8 6 3 3 3 4 4 4 5 5 5 5 5 5
3 3 3 3 3 3 2 2 2 2 1 1 1 1 1 2 2 2 2 2 3 3 2 4 5 5 4 5 5 4 3 3 3 3 4 4 4 4 4 4 5 5 5
3 2 3 3 3 2 2 2 1 1 1 0 1 1 1 2 3 5 4 2 2 2 3 2 2 3 3 3 3 3 3 4 4 4 4 4 4 5 5 4 4 4 4
2 2 2 2 2 2 2 2 3 2 2 2 2 2 2 4 5 5 5 5 5 4 3 2 2 2 3 4 4 4 4 4 4 4 4 4 4 5 5 5 4 4 5
2 2 2 2 2 2 1 1 1 2 3 4 4 5 4 4 4 5 5 4 4 3 2 1 2 2 3 3 3 4 4 4 4 4 4 4 4 4 4 5 5 5 5
2 2 2 1 1 1 1 1 1 1 1 2 3 5 6 5 5 5 5 3 2 2 2 1 2 2 2 3 3 4 4 4 4 4 4 4 4 4 4 5 5 5 5
1 1 1 1 1 1 1 1 1 1 1 1 2 3 5 5 5 6 5 2 1 2 2 2 2 2 2 3 3 3 4 4 4 4 4 5 4 4 4 4 5 7 6
1 2 2 1 1 1 1 1 1 1 1 1 1 2 2 3 2 3 3 2 2 2 2 2 2 3 3 3 3 3 4 4 4 4 4 4 4 4 4 5 5 5 4
1 1 2 2 1 1 1 1 1 1 0 1 1 2 4 2 2 2 2 2 2 2 2 2 3 3 3 3 3 4 5 4 4 4 4 4 4 4 4 4 4 4 4
1 1 1 1 1 1 1 1 1 1 0 1 1 2 4 2 1 2 2 2 2 2 2 3 3 3 3 3 3 3 4 4 4 4 4 4 4 4 4 4 4 4 4
2 2 1 1 1 1 1 1 1 0 0 1 1 2 2 2 2 2 2 2 2 3 3 2 3 3 3 3 3 3 4 5 5 5 4 4 4 4 4 4 4 4 4
2 2 1 1 1 1 1 0 0 0 1 1 1 1 2 2 2 2 3 3 3 3 3 3 3 4 6 5 4 4 4 5 5 4 4 4 4 3 3 3 3 4 3
2 1 1 1 1 1 0 0 0 1 1 1 1 2 2 2 2 3 3 3 3 3 4 4 3 4 5 7 6 5 7 8 7 5 3 3 3 3 2 2 2 3 3
1 1 1 1 1 1 0 0 0 1 1 1 2 2 2 2 2 3 3 3 3 3 4 3 4 5 6 5 6 8 9 8 7 7 4 2 2 2 2 2 2 2 3
Wind_Direction
158 151 144 147 147 150 159 167 163 160 159 163 166 163 165 164 163 159 176 177 182 208 217 214 251 259 267 276 273 271 265 262 280 295 294 301 304 310 316 313 312 311 313
151 141 143 143 142 149 158 164 160 160 165 167 166 164 169 172 175 175 187 192 194 217 233 234 258 274 273 276 269 269 269 266 275 295 303 308 307 311 312 315 318 318 312
133 135 135 139 144 153 156 158 157 155 158 160 162 170 178 182 187 192 193 201 206 219 229 240 254 255 270 274 274 274 278 285 281 289 301 306 306 314 319 317 314 312 316
124 132 134 143 150 154 151 147 148 150 152 158 170 177 181 187 190 194 198 202 213 231 237 247 257 250 259 268 274 275 286 292 295 298 303 309 309 316 322 325 325 325 320
117 126 131 132 132 129 130 132 129 134 141 147 158 171 177 185 196 199 196 197 205 241 261 260 268 287 290 287 289 286 287 291 303 305 308 314 316 326 328 324 320 319 314
114 123 123 123 123 124 126 124 119 113 116 126 142 164 179 202 219 216 205 191 202 235 267 282 286 283 297 304 303 300 298 300 300 298 303 309 308 313 315 318 320 326 321
110 118 121 122 120 122 122 116 115 115 112 127 135 150 198 231 230 229 236 185 212 240 258 278 297 300 308 290 298 307 305 307 302 297 295 298 303 308 314 315 315 312 302
106 110 112 115 116 118 118 117 116 116 122 132 139 155 215 264 270 258 259 193 225 247 255 257 273 288 293 303 303 310 305 299 298 296 283 290 296 300 297 298 300 302 296
88 93 117 124 123 121 118 117 117 114 109 112 131 127 145 300 308 281 289 213 242 264 268 271 288 286 298 321 320 311 313 311 317 317 314 313 316 319 322 322 324 322 316
74 83 95 114 120 123 124 117 106 114 112 92 59 44 21 307 331 347 331 217 272 297 302 298 304 310 315 328 320 307 309 312 322 326 323 321 316 315 325 322 310 313 313
61 75 78 97 113 118 110 105 109 101 90 76 57 20 11 357 354 355 352 336 271 298 308 311 306 320 326 329 328 304 307 321 321 318 316 318 322 321 316 312 299 291 296
73 80 81 91 99 102 108 101 100 100 91 77 65 32 13 351 1 353 356 353 350 318 306 306 311 327 335 334 332 330 338 340 327 323 324 325 326 323 317 313 305 296 281
79 81 80 83 88 99 113 112 103 99 98 81 62 26 347 344 340 352 351 353 355 351 320 327 332 338 345 341 341 347 351 343 331 329 323 318 315 311 312 314 315 311 305
95 92 92 96 95 91 96 103 106 107 103 80 44 357 335 335 337 338 332 338 351 349 346 342 346 350 352 348 349 349 344 336 335 321 317 315 316 317 318 321 322 328 326
93 92 91 91 103 95 80 77 89 126 166 170 236 264 296 310 329 344 345 339 339 341 355 1 355 347 350 348 345 345 343 341 340 332 325 323 323 322 323 327 324 327 328
100 93 94 93 93 94 87 55 41 48 41 19 358 346 330 332 337 345 344 346 352 5 19 2 347 345 346 343 341 340 339 338 335 330 324 323 323 323 325 328 329 329 328
108 106 107 103 101 98 98 95 60 31 36 37 25 6 356 350 346 348 350 351 360 21 26 355 340 337 335 333 332 330 329 326 325 324 325 326 328 326 327 329 331 330 329
97 109 108 114 113 106 105 103 97 58 12 2 2 7 9 4 2 2 5 17 5 8 357 339 333 328 325 325 326 327 326 327 329 327 326 326 328 328 330 330 329 329 328
85 95 100 103 104 106 98 86 79 60 26 354 353 0 9 8 15 19 21 22 349 337 339 335 328 319 317 318 320 322 320 319 322 322 322 324 325 327 328 328 326 329 331
85 106 100 102 99 95 88 85 82 81 37 8 354 348 348 3 12 5 6 0 347 334 331 327 320 314 313 314 318 322 320 318 321 320 320 322 324 324 325 326 327 330 332
96 106 98 90 96 104 105 100 93 83 41 353 329 337 357 2 356 345 342 345 338 327 322 316 312 311 312 315 318 320 317 313 316 316 318 321 322 323 322 321 323 328 333
110 105 101 105 103 99 97 105 104 99 31 333 325 335 353 357 344 331 326 327 325 318 314 310 306 303 303 305 310 313 313 312 313 314 316 317 316 318 320 323 331 336 340
122 120 107 97 98 99 70 72 82 69 316 307 311 324 332 330 321 316 315 314 315 317 319 313 308 309 312 310 303 296 296 301 301 301 306 308 312 315 320 328 333 337 340
129 128 123 108 94 98 92 63 36 332 301 296 303 309 307 302 303 305 307 309 313 315 314 312 308 308 312 315 309 303 298 302 304 298 297 299 307 313 320 330 336 337 337
135 134 133 136 133 132 125 68 331 310 302 300 302 304 305 303 303 305 307 308 310 310 310 311 309 310 311 311 310 309 312 318 321 319 305 302 302 308 320 331 338 341 344
144 146 143 140 150 164 168 221 287 295 296 298 298 295 295 297 298 300 304 309 313 312 311 310 310 312 311 309 308 314 321 325 329 333 328 307 309 324 335 336 339 349 353